Weather History for Glens Falls, NY

Change the Weather History Date:

Tuesday, December 9, 2014

  Actual Average Record
Temperature  
Mean Temperature 31 °F 28 °F  
Max Temperature 36 °F 36 °F 56 °F (1966)
Min Temperature 25 °F 19 °F -5 °F (1989)
Degree Days  
Heating Degree Days 34 37  
Month to date heating degree days 329 320  
Since 1 July heating degree days 1790 2018  
Cooling Degree Days 0 0  
Month to date cooling degree days 0 0  
Year to date cooling degree days 392 352  
Moisture  
Dew Point 28 °F    
Average Humidity 83    
Maximum Humidity 92    
Minimum Humidity 74    
Precipitation  
Precipitation 0.78 in 0.12 in 1.01 in (1973)
Month to date precipitation 1.98 1.00  
Year to date precipitation 34.33 37.01  
Sea Level Pressure  
Sea Level Pressure 30.10 in    
Wind  
Wind Speed 12 mph (North)    
Max Wind Speed 21 mph    
Max Gust Speed 29 mph    
Visibility 9 miles    
Events Rain , Snow    
T = Trace of Precipitation, MM = Missing Value Source: NWS Daily Summary

Daily Weather History Graph

Daily Weather History Graph

Search for Another Location

Airport:

Trip Planner

Search our weather history database for the weather conditions in past years. The results will help you decide how hot, cold, wet, or windy it might be!

Date:

Astronomy

Dec. 09, 2014 Rise Set
Actual Time 7:15 AM EST 4:18 PM EST
Civil Twilight 6:42 AM EST 4:50 PM EST
Nautical Twilight 6:06 AM EST 5:26 PM EST
Astronomical Twilight 5:32 AM EST 6:01 PM EST
Moon 7:38 PM EST (12/9) 9:23 AM EST (12/9)
Length of Visible Light 10h 08m
Length of Day
9h 03m
Waning Gibbous, 90% of the Moon is Illuminated
Dec 9
Waning Gibbous
Dec 14
Last Quarter
Dec 21
New
Dec 28
First Quarter
Jan 4
Full

Hourly Weather History & Observations

Time (EST) Temp. Windchill Dew Point Humidity Pressure Visibility Wind Dir Wind Speed Gust Speed Precip Events Conditions
12:02 AM 25.0 °F 20.7 °F 17.1 °F 72% 30.45 in 10.0 mi NNW 3.5 mph - N/A   Overcast
12:53 AM 27.0 °F 19.5 °F 19.0 °F 72% 30.45 in 10.0 mi NNW 6.9 mph - N/A   Overcast
1:53 AM 27.0 °F 20.5 °F 19.9 °F 75% 30.44 in 10.0 mi North 5.8 mph - N/A   Overcast
2:53 AM 28.0 °F 21.7 °F 21.0 °F 75% 30.41 in 10.0 mi North 5.8 mph - N/A   Overcast
3:53 AM 28.0 °F 21.7 °F 21.0 °F 75% 30.40 in 10.0 mi NNW 5.8 mph - N/A   Overcast
4:53 AM 28.9 °F 23.9 °F 21.9 °F 75% 30.39 in 10.0 mi NNW 4.6 mph - N/A   Overcast
5:53 AM 28.0 °F 19.3 °F 23.0 °F 81% 30.35 in 10.0 mi North 9.2 mph - N/A   Overcast
6:53 AM 28.9 °F 19.2 °F 24.1 °F 82% 30.32 in 10.0 mi NNW 11.5 mph - N/A   Overcast
7:53 AM 30.0 °F 21.7 °F 24.1 °F 79% 30.30 in 10.0 mi North 9.2 mph - N/A   Overcast
8:53 AM 30.0 °F 21.1 °F 26.1 °F 85% 30.27 in 8.0 mi NNW 10.4 mph - 0.00 in   Overcast
9:53 AM 30.9 °F 22.2 °F 26.1 °F 82% 30.24 in 10.0 mi North 10.4 mph - 0.00 in   Overcast
10:53 AM 32.0 °F 23.0 °F 28.0 °F 85% 30.21 in 10.0 mi NNW 11.5 mph - 0.01 in   Overcast
11:21 AM 32.0 °F 22.5 °F 28.0 °F 85% 30.16 in 7.0 mi North 12.7 mph - 0.00 in Rain Light Freezing Rain
11:53 AM 33.1 °F 23.9 °F 30.0 °F 89% 30.16 in 6.0 mi North 12.7 mph - 0.02 in Rain Light Freezing Rain
12:14 PM 33.1 °F 24.4 °F 30.0 °F 89% 30.12 in 7.0 mi North 11.5 mph - 0.00 in Rain Light Rain
12:53 PM 34.0 °F 25.5 °F 30.9 °F 89% 30.12 in 8.0 mi North 11.5 mph - 0.01 in Rain Light Rain
1:53 PM 35.1 °F 25.9 °F 32.0 °F 89% 30.07 in 5.0 mi North 13.8 mph - 0.06 in Rain Light Rain
2:53 PM 35.1 °F 25.9 °F 32.0 °F 89% 30.04 in 7.0 mi North 13.8 mph - 0.06 in Rain Light Rain
3:53 PM 36.0 °F 26.7 °F 33.1 °F 89% 30.00 in 9.0 mi North 15.0 mph - 0.03 in Rain Light Rain
4:09 PM 36.0 °F 26.0 °F 33.1 °F 89% 29.97 in 10.0 mi North 17.3 mph - 0.01 in Rain Light Rain
4:53 PM 36.0 °F 26.3 °F 33.1 °F 89% 29.97 in 9.0 mi North 16.1 mph 23.0 mph 0.03 in Rain Light Rain
5:53 PM 35.1 °F 25.2 °F 32.0 °F 89% 29.93 in 7.0 mi North 16.1 mph - 0.11 in Rain Light Rain
6:00 PM 35.1 °F 24.5 °F 32.0 °F 89% 29.91 in 9.0 mi North 18.4 mph - 0.01 in Rain Light Rain
6:53 PM 34.0 °F 24.2 °F 32.0 °F 92% 29.91 in 2.5 mi North 15.0 mph - 0.16 in Snow Light Snow
7:07 PM 34.0 °F 23.8 °F 32.0 °F 92% 29.87 in 5.0 mi North 16.1 mph 23.0 mph 0.05 in Snow Light Snow
7:53 PM 35.1 °F 24.1 °F 32.0 °F 89% 29.88 in 6.0 mi North 19.6 mph 27.6 mph 0.16 in Snow Light Snow
8:43 PM 35.1 °F 25.2 °F 32.0 °F 89% 29.81 in 9.0 mi North 16.1 mph 25.3 mph 0.09 in Rain Light Rain
8:53 PM 35.1 °F 25.2 °F 32.0 °F 89% 29.83 in 10.0 mi North 16.1 mph 25.3 mph 0.09 in Rain Light Rain
9:32 PM 35.1 °F 25.2 °F 32.0 °F 89% 29.80 in 10.0 mi North 16.1 mph 21.9 mph 0.02 in Rain Light Rain
9:53 PM 35.1 °F 24.5 °F 32.0 °F 89% 29.81 in 10.0 mi North 18.4 mph 25.3 mph 0.02 in Rain Light Rain
10:53 PM 35.1 °F 25.5 °F 32.0 °F 89% 29.79 in 10.0 mi North 15.0 mph - 0.01 in   Overcast
11:53 PM 35.1 °F 26.9 °F 32.0 °F 89% 29.78 in 10.0 mi North 11.5 mph - 0.01 in Rain Light Rain